Flag for Montenegro Weather past 2 weeks in Podgorica, Montenegro

Now
75 °F

Passing clouds.


Feels Like: 75 °F
Forecast: 69 / 88 °F
Wind: 3 mph from Southeast

Location: Podgorica Titograd

Current Time: Aug 20, 2014 at 10:57:02 PM

Latest Report: Aug 20, 2014 at 10:30 PM


Visibility: N/A

Pressure: 30.01 "Hg

Humidity: 89%

Dew point: 72 °F

Location of PodgoricaLocation

Historic Weather in Podgorica — Graph

°F

Podgorica temperature yesterday

Maximum temperature yesterday: 88 °F (at 3:00 PM)
Minimum temperature yesterday: 64 °F (at 4:30 AM)
Average temperature yesterday: 75 °F

Past Weeks' High & Low Weather Summary

 TemperatureHumidityPressure
High97 °F (Aug 12, 3:00 PM)89% (Aug 20, 9:00 PM)30.01 "Hg (Aug 20, 9:00 PM)
Low64 °F (Aug 18, 5:00 AM)19% (Aug 19, 3:00 PM)29.71 "Hg (Aug 6, 2:30 PM)
Average80 °F56%29.89 "Hg
* Reported Aug 5 10:00 PM — Aug 20 10:00 PM, Podgorica, Weather by CustomWeather, © 2014

Note: Actual official high and low records may vary slightly from our data, if they occured in-between our weather recording intervals... More about our weather records

Advertising

Podgorica weather history for previous 24 hours

 ConditionsComfort  
Time TempWeatherWind HumidityBarometerVisibility
10:00 PM
Aug 20
75 °FPassing clouds.3 mph83%30.01 "HgN/A
9:30 PM75 °FPassing clouds.5 mph83%30.01 "HgN/A
9:00 PM75 °FPassing clouds.3 mph89%30.01 "HgN/A
8:30 PM77 °FPassing clouds.5 mph79%30.01 "HgN/A
8:00 PM79 °FPassing clouds.3 mph70%29.98 "HgN/A
7:30 PM81 °FPassing clouds.3 mph66%29.98 "HgN/A
7:00 PM81 °FPassing clouds.2 mph66%29.98 "HgN/A
6:30 PM82 °FPassing clouds.3 mph62%29.98 "HgN/A
6:00 PM82 °FScattered clouds.3 mph62%29.98 "HgN/A
5:30 PM82 °FScattered clouds.2 mph62%29.98 "HgN/A
5:00 PM81 °FScattered clouds.9 mph62%29.98 "HgN/A
4:30 PM82 °FScattered clouds.7 mph58%29.98 "HgN/A
4:00 PM86 °FScattered clouds.7 mph52%29.98 "HgN/A
3:30 PM86 °FScattered clouds.6 mph49%29.98 "HgN/A
3:00 PM86 °FScattered clouds.5 mph49%29.98 "HgN/A
2:30 PM86 °FScattered clouds.7 mph49%29.98 "HgN/A
2:00 PM86 °FScattered clouds.12 mph43%29.98 "HgN/A
1:30 PM84 °FScattered clouds.7 mph43%29.98 "HgN/A
1:00 PM82 °FScattered clouds.6 mph48%30.01 "HgN/A
12:30 PM84 °FScattered clouds.7 mph40%30.01 "HgN/A
12:00 PM82 °FScattered clouds.6 mph40%30.01 "HgN/A
11:30 AM82 °FScattered clouds.2 mph37%30.01 "HgN/A
11:00 AM81 °FScattered clouds.2 mph34%30.01 "HgN/A
10:30 AM79 °FScattered clouds.1 mph37%30.01 "HgN/A
10:00 AM79 °FScattered clouds.1 mph37%30.01 "HgN/A
9:30 AM77 °FScattered clouds.2 mph36%30.01 "HgN/A
9:00 AM77 °FScattered clouds.3 mph36%30.01 "HgN/A
8:30 AM73 °FPassing clouds.3 mph44%30.01 "HgN/A
8:00 AM72 °FPassing clouds.3 mph50%30.01 "HgN/A
7:30 AM70 °FPassing clouds.3 mph50%30.01 "HgN/A
7:00 AM68 °FPassing clouds.1 mph53%29.98 "HgN/A
6:30 AM66 °FPassing clouds.2 mph56%29.98 "HgN/A
6:00 AM68 °FPassing clouds.3 mph53%29.98 "HgN/A
5:30 AM66 °FPassing clouds.2 mph56%29.98 "HgN/A
5:00 AM66 °FPassing clouds.3 mph60%29.98 "HgN/A
4:30 AM68 °FPassing clouds.No wind56%29.98 "HgN/A
4:00 AM68 °FPassing clouds.2 mph53%29.98 "HgN/A
3:30 AM68 °FPassing clouds.5 mph53%29.98 "HgN/A
3:00 AM68 °FPassing clouds.3 mph53%29.98 "HgN/A
2:30 AM68 °FPassing clouds.2 mph49%29.98 "HgN/A
2:00 AM70 °FPassing clouds.8 mph50%29.98 "HgN/A
1:30 AM70 °FPassing clouds.7 mph46%29.98 "HgN/A
1:00 AM68 °FClear.6 mph53%29.98 "Hg10 mi
12:30 AM68 °FClear.5 mph49%29.98 "Hg10 mi
12:00 AM68 °FPassing clouds.8 mph53%29.98 "HgN/A
11:30 PM
Aug 19
70 °FClear.3 mph53%29.98 "Hg10 mi
11:00 PM70 °FClear.5 mph57%29.98 "Hg10 mi
10:30 PM72 °FPassing clouds.5 mph47%29.98 "HgN/A
10:00 PM73 °FPassing clouds.3 mph44%29.98 "HgN/A
Weather by CustomWeather, © 2014

See weather overviewHow to use our weather pages